Tracking 20242 objects as of 24-Jan-2020
HD Live streaming from Space Station
objects crossing your sky now

TITAN 3C TRANSTAGE DEB

Track TITAN 3C TRANSTAGE DEB now!
10-day predictions


NORAD ID: 36982
Int'l Code: 1965-108DN
Perigee: 437.0 km
Apogee: 24,319.5 km
Inclination: 26.8 °
Period: 425.8 minutes
Semi major axis: 18749 km
RCS: 0.0557 m2 (small)
Launch date: December 21, 1965
Source: United States (US)
Launch site: AIR FORCE EASTERN TEST RANGE (AFETR)

Note: This is SATELLITE DEBRIS
aabbcc
Your satellite tracking list
Your tracking list is empty




NASA's NSSDC Master Catalog

Two Line Element Set (TLE):
1 36982U 65108DN  20022.30213282 -.00000081  00000-0  52879-4 0  9990
2 36982  26.8047 301.7630 6368938 219.9685  69.4873  3.38163637142824
Source of the keplerian elements: AFSPC